WB2COY Weather Reports


time (UTC)temp
F
wind
direction
speed
knots
gust
knots
rain 1hr
in
rain 24hr
in
rain mn
in
humidity
%
barometer
mb
20260502163016 53 68 0.9 2.6 0.00 0.22 0.22 63 1012.2
20260502123015 49 0.0 0.9 0.00 0.22 0.22 80 1012.1
20260502113017 48 0.0 0.0 0.00 0.22 0.22 81 1012.2
20260502110058 48 0.0 0.0 0.00 0.22 0.22 81 1011.9
20260502103018 47 0.0 0.9 0.00 0.22 0.22 80 1011.8
20260502070016 48 0.0 0.9 0.07 0.11 0.11 72 1012.2
20260502063018 48 0.0 0.9 0.01 0.05 0.05 70 1012.3
20260502060016 48 0.0 0.9 0.03 0.04 0.04 69 1011.9
20260502053017 48 0.0 1.7 0.04 0.04 0.04 68 1011.9
20260502050016 50 0.0 1.7 0.01 0.01 0.01 65 1011.9
20260502043016 51 0.0 0.9 0.00 0.00 0.00 60 1012.0
20260502040016 52 0.0 0.0 0.00 0.00 0.00 55 1011.8
20260502033017 52 0.0 0.0 0.00 0.00 0.00 55 1011.5
20260502030016 53 0.0 0.0 0.00 0.00 0.00 52 1011.7
20260502023018 53 0.0 0.0 0.00 0.00 0.00 51 1011.5
20260502020016 53 0.0 0.0 0.00 0.00 0.00 47 1011.5
20260502013016 54 0.0 0.0 0.00 0.00 0.00 47 1011.5
20260502010016 54 0.0 0.0 0.00 0.00 0.00 45 1011.5
20260502003039 56 0.0 1.7 0.00 0.00 0.00 40 1011.1
20260502000016 58 0.0 2.6 0.00 0.00 0.00 36 1010.8
20260501233016 59 0.0 3.5 0.00 0.00 0.00 35 1010.4
20260501230016 61 225 0.9 6.1 0.00 0.00 0.00 31 1009.9
20260501223016 61 0.0 3.5 0.00 0.00 0.00 30 1009.6
20260501220016 62 0.0 4.3 0.00 0.00 0.00 27 1009.6
20260501213016 63 225 0.9 5.2 0.00 0.00 0.00 26 1009.2
20260501210017 64 293 0.9 4.3 0.00 0.00 0.00 25 1009.2
20260501203036 64 225 0.9 4.3 0.00 0.02 0.00 25 1009.5
20260501200015 63 248 0.9 5.2 0.00 0.02 0.00 26 1009.6
20260501193036 64 315 0.9 6.1 0.00 0.02 0.00 24 1009.7
20260501190036 66 68 0.9 4.3 0.00 0.03 0.00 23 1010.0
20260501183015 66 158 1.7 6.1 0.00 0.04 0.00 25 1010.4
20260501180015 65 68 0.9 3.5 0.00 0.04 0.00 26 1010.5